Regional Weather Roundup
Issued by NWS

Home | Current Version | Previous Version | Text Only | Print | Product List | Glossary Off
Versions: 1 2 3 4 5 6 7 8 9 10 11 12 13 14 15 16 17 18 19 20 21 22 23 24 25 26 27 28 29 30 31 32 33 34 35 36 37 38 39 40 41 42 43 44 45 46 47 48 49 50

000
ASUS44 KMEG 260810
RWRTN
TENNESSEE HOURLY STATE WEATHER ROUNDUP
NATIONAL WEATHER SERVICE MEMPHIS TN
300 AM CDT FRI AUG 26 2016

TNZ002-004-019-021-049-052-054-088>092-260900-
WEST TENNESSEE

CITY           SKY/WX    TMP DP  RH WIND       PRES   REMARKS
MEMPHIS INTL   FAIR      78  73  84 CALM      30.05F
NWS MEMPHIS      N/A     76 N/A N/A MISG        N/A
JACKSON        FAIR      74  73  97 CALM      30.07F
DYERSBURG      FAIR      82  73  74 MISG      30.05S
UNION CITY     CLEAR     73  73 100 CALM      30.06S
PARIS            N/A     72  72 100 CALM      30.09S VSB 1
LEXINGTON      MOCLDY    73  73 100 CALM      30.07F VSB 1/2
$$

TNZ008-025-027-028-033-062-065-066-260900-
NORTH MIDDLE TENNESSEE

CITY           SKY/WX    TMP DP  RH WIND       PRES   REMARKS
NASHVILLE      FAIR      76  74  93 CALM      30.10F
CLARKSVILLE    FOG       74  73  97 CALM      30.10R VSB 1/2
COOKEVILLE     CLEAR     72  70  94 CALM      30.13S
CROSSVILLE     FAIR      69  68  96 CALM      30.19S FOG
$$

TNZ061-075-076-078-094-096-097-260900-
SOUTH MIDDLE TENNESSEE

CITY           SKY/WX    TMP DP  RH WIND       PRES   REMARKS
FAYETTEVILLE   CLOUDY    75  73  94 CALM      30.12S
TULLAHOMA      CLEAR     72  70  94 CALM      30.14S
WINCHESTER     CLEAR     72  72 100 CALM      30.13S
MCMINNVILLE    CLEAR     73  73 100 CALM      30.13S
COLUMBIA       CLEAR    N/A N/A N/A CALM      30.09F
SHELBYVILLE    CLEAR     73  73 100 CALM      30.12F
$$

TNZ017-018-042-046-047-260900-
NORTHEAST TENNESSEE

CITY           SKY/WX    TMP DP  RH WIND       PRES   REMARKS
TRI CITIES     FAIR      68  67  96 CALM      30.18R FOG
ELIZABETHTON   FAIR      68  68 100 CALM      30.18S
$$

TNZ012-013-036-069-073-074-260900-
CENTRAL EAST TENNESSEE

CITY           SKY/WX    TMP DP  RH WIND       PRES   REMARKS
KNOXVILLE      FAIR      75  72  90 CALM      30.13S
OAK RIDGE      FAIR      74  72  93 CALM      30.15S
GATLINBURG     CLEAR     70  68  94 CALM      30.14S
MORRISTOWN     CLEAR     72  70  94 CALM      30.15S
$$

TNZ083-085-099-260900-
SOUTHEAST TENNESSEE

CITY           SKY/WX    TMP DP  RH WIND       PRES   REMARKS
CHATTANOOGA    FAIR      76  72  87 NW3       30.12S
$$

SKY/WX REPORTED AS FAIR MEANS FEW OR NO CLOUDS BELOW
12 THOUSAND FEET.





USA.gov is the U.S. government's official web portal to all federal, state and local government web resources and services.